Weather History for Lincoln, IL

Change the Weather History Date:

Wednesday, October 2, 2013

  Actual Average (KSPI) Record (KSPI)
Temperature  
Mean Temperature 73 °F 60 °F  
Max Temperature 83 °F 72 °F 93 °F (1953)
Min Temperature 63 °F 48 °F 23 °F (2003)
Degree Days  
Heating Degree Days 0 7  
Month to date heating degree days 13  
Since 1 July heating degree days 94  
Cooling Degree Days 8 2  
Month to date cooling degree days 4  
Year to date cooling degree days 1103  
Growing Degree Days 23 (Base 50)    
Moisture  
Dew Point 66 °F    
Average Humidity 83    
Maximum Humidity 97    
Minimum Humidity 51    
Precipitation  
Precipitation 0.00 in 0.10 in 2.55 in (1881)
Month to date precipitation 0.20  
Year to date precipitation 28.75  
Snow  
Snow 0.00 in 0.00 in 0.00 in ()
Month to date snowfall 0.0  
Since 1 July snowfall 0.0  
Since 1 September snowfall 0.0  
Snow Depth -    
Sea Level Pressure  
Sea Level Pressure 30.00 in    
Wind  
Wind Speed 3 mph (SSE)    
Max Wind Speed 9 mph    
Max Gust Speed -    
Visibility 5 miles    
Events Fog    
T = Trace of Precipitation, MM = Missing Value Source: NWS Daily Summary

Daily Weather History Graph

Daily Weather History Graph

Search for Another Location

Airport:

Trip Planner

Search our weather history database for the weather conditions in past years. The results will help you decide how hot, cold, wet, or windy it might be!

Date:

Astronomy

Oct. 02, 2013 Rise Set
Actual Time 6:54 AM CDT 6:37 PM CDT
Civil Twilight 6:27 AM CDT 7:04 PM CDT
Nautical Twilight 5:56 AM CDT 7:36 PM CDT
Astronomical Twilight 5:24 AM CDT 8:07 PM CDT
Moon 4:27 AM CDT (10/2) 5:13 PM CDT (10/2)
Length of Visible Light 12h 36m
Length of Day
11h 42m
Waning Crescent, 6% of the Moon is Illuminated
Oct 2
Waning Crescent
Oct 4
New
Oct 11
First Quarter
Oct 18
Full
Oct 26
Last Quarter

Hourly Weather History & Observations

Time (CDT) Temp. Heat Index Dew Point Humidity Pressure Visibility Wind Dir Wind Speed Gust Speed Precip Events Conditions
12:15 AM 68.0 °F - 66.2 °F 94% 29.99 in 3.0 mi South 4.6 mph - N/A   Overcast
12:35 AM 68.4 °F - 66.4 °F 93% 29.99 in 3.0 mi South 3.5 mph - N/A   Overcast
12:55 AM 68.2 °F - 66.4 °F 94% 30.00 in 3.0 mi South 5.8 mph - N/A   Scattered Clouds
1:15 AM 68.2 °F - 66.4 °F 94% 30.00 in 3.0 mi South 3.5 mph - N/A   Mostly Cloudy
1:35 AM 68.0 °F - 66.2 °F 94% 30.00 in 3.0 mi SSW 3.5 mph - N/A   Mostly Cloudy
1:55 AM 68.0 °F - 66.2 °F 94% 30.01 in 2.5 mi Calm Calm - N/A   Scattered Clouds
2:15 AM 67.1 °F - 65.7 °F 95% 30.01 in 2.0 mi Calm Calm - N/A   Clear
2:35 AM 66.9 °F - 65.5 °F 95% 30.00 in 2.0 mi Calm Calm - N/A   Clear
2:55 AM 66.6 °F - 65.3 °F 96% 30.00 in 1.8 mi Calm Calm - N/A   Mist
3:15 AM 66.2 °F - 64.8 °F 95% 30.00 in 1.8 mi Calm Calm - N/A   Mist
3:35 AM 63.7 °F - 62.6 °F 96% 30.00 in 0.2 mi South 3.5 mph - N/A Fog Fog
3:55 AM 63.9 °F - 62.8 °F 96% 30.01 in 0.2 mi Calm Calm - N/A Fog Fog
4:15 AM 63.9 °F - 62.8 °F 96% 30.01 in 0.2 mi Calm Calm - N/A Fog Fog
4:35 AM 63.9 °F - 63.0 °F 97% 30.01 in 0.2 mi Calm Calm - N/A Fog Fog
4:55 AM 64.0 °F - 63.1 °F 97% 30.02 in 0.2 mi Calm Calm - N/A Fog Fog
5:15 AM 64.2 °F - 63.3 °F 97% 30.02 in 0.2 mi Calm Calm - N/A Fog Fog
5:35 AM 64.4 °F - 63.5 °F 97% 30.02 in 0.2 mi Calm Calm - N/A Fog Fog
5:55 AM 64.6 °F - 63.7 °F 97% 30.03 in 0.2 mi Calm Calm - N/A Fog Fog
6:15 AM 64.9 °F - 64.0 °F 97% 30.03 in 0.2 mi Calm Calm - N/A Fog Fog
6:35 AM 65.3 °F - 64.4 °F 97% 30.03 in 0.2 mi Calm Calm - N/A Fog Fog
6:55 AM 65.3 °F - 64.4 °F 97% 30.04 in 0.2 mi Calm Calm - N/A Fog Fog
7:15 AM 65.5 °F - 64.6 °F 97% 30.04 in 0.2 mi Calm Calm - N/A Fog Fog
7:35 AM 65.8 °F - 64.9 °F 97% 30.04 in 0.2 mi Calm Calm - N/A Fog Fog
7:55 AM 66.4 °F - 65.5 °F 97% 30.05 in 0.2 mi Calm Calm - N/A Fog Fog
8:15 AM 67.1 °F - 66.2 °F 97% 30.05 in 0.2 mi Calm Calm - N/A Fog Fog
8:35 AM 67.5 °F - 66.6 °F 97% 30.05 in 0.2 mi South 3.5 mph - N/A Fog Fog
8:55 AM 68.2 °F - 67.3 °F 97% 30.05 in 0.2 mi Calm Calm - N/A Fog Fog
9:15 AM 68.9 °F - 68.0 °F 97% 30.07 in 0.2 mi Calm Calm - N/A Fog Fog
9:35 AM 68.7 °F - 67.8 °F 97% 30.06 in 0.2 mi South 3.5 mph - N/A Fog Fog
9:55 AM 69.1 °F - 68.2 °F 97% 30.06 in 2.0 mi Calm Calm - N/A   Overcast
10:15 AM 69.1 °F - 68.2 °F 97% 30.06 in 3.0 mi Calm Calm - N/A   Overcast
10:35 AM 69.8 °F - 68.9 °F 97% 30.06 in 3.0 mi Calm Calm - N/A   Overcast
10:55 AM 69.8 °F - 68.9 °F 97% 30.06 in 5.0 mi Calm Calm - N/A   Overcast
11:15 AM 70.7 °F - 69.6 °F 96% 30.06 in 7.0 mi South 3.5 mph - N/A   Overcast
11:35 AM 71.8 °F - 68.2 °F 88% 30.05 in 10.0 mi Calm Calm - N/A   Overcast
11:55 AM 74.3 °F - 68.5 °F 82% 30.05 in 10.0 mi Calm Calm - N/A   Overcast
12:15 PM 75.6 °F - 68.0 °F 77% 30.04 in 10.0 mi South 3.5 mph - N/A   Overcast
12:35 PM 76.8 °F - 67.3 °F 72% 30.04 in 10.0 mi Calm Calm - N/A   Overcast
12:55 PM 78.3 °F - 66.7 °F 68% 30.03 in 10.0 mi Calm Calm - N/A   Mostly Cloudy
1:15 PM 79.0 °F - 66.2 °F 65% 30.02 in 10.0 mi SE 4.6 mph - N/A   Scattered Clouds
1:35 PM 80.8 °F 82.9 °F 66.2 °F 61% 30.01 in 10.0 mi SSE 3.5 mph - N/A   Scattered Clouds
1:55 PM 80.8 °F 82.6 °F 65.5 °F 59% 29.99 in 10.0 mi Calm Calm - N/A   Scattered Clouds
2:15 PM 82.2 °F 84.2 °F 65.8 °F 57% 29.99 in 10.0 mi SE 5.8 mph - N/A   Overcast
2:35 PM 81.1 °F 83.2 °F 65.8 °F 60% 29.99 in 10.0 mi SSE 6.9 mph - N/A   Mostly Cloudy
2:55 PM 82.6 °F 84.7 °F 65.8 °F 57% 29.98 in 10.0 mi South 4.6 mph - N/A   Mostly Cloudy
3:15 PM 83.3 °F 84.8 °F 64.4 °F 53% 29.97 in 10.0 mi South 3.5 mph - N/A   Scattered Clouds
3:35 PM 83.5 °F 85.1 °F 64.6 °F 53% 29.97 in 10.0 mi SSE 4.6 mph - N/A   Clear
3:55 PM 82.0 °F 83.4 °F 63.9 °F 54% 29.96 in 10.0 mi Calm Calm - N/A   Clear
4:15 PM 83.7 °F 84.9 °F 63.9 °F 51% 29.95 in 10.0 mi SSE 5.8 mph - N/A   Clear
4:35 PM 82.2 °F 83.7 °F 64.0 °F 54% 29.96 in 10.0 mi SSE 5.8 mph - N/A   Clear
4:55 PM 82.0 °F 83.4 °F 63.9 °F 54% 29.96 in 10.0 mi SSE 8.1 mph - N/A   Scattered Clouds
5:15 PM 80.6 °F 82.4 °F 65.3 °F 59% 29.96 in 10.0 mi SSE 6.9 mph - N/A   Scattered Clouds
5:35 PM 79.7 °F - 65.3 °F 61% 29.96 in 10.0 mi SE 5.8 mph - N/A   Clear
5:55 PM 79.0 °F - 65.5 °F 63% 29.97 in 10.0 mi SE 9.2 mph - N/A   Scattered Clouds
6:15 PM 78.3 °F - 65.7 °F 65% 29.96 in 10.0 mi SE 3.5 mph - N/A   Clear
6:35 PM 77.4 °F - 65.5 °F 67% 29.97 in 10.0 mi SE 5.8 mph - N/A   Clear
6:55 PM 76.1 °F - 65.5 °F 70% 29.97 in 10.0 mi SE 5.8 mph - N/A   Clear
7:15 PM 75.7 °F - 65.8 °F 71% 29.96 in 10.0 mi SE 6.9 mph - N/A   Clear
7:35 PM 74.7 °F - 66.6 °F 76% 29.96 in 10.0 mi SE 5.8 mph - N/A   Clear
7:55 PM 74.3 °F - 67.1 °F 78% 29.96 in 7.0 mi SE 6.9 mph - N/A   Clear
8:15 PM 73.8 °F - 67.5 °F 81% 29.96 in 7.0 mi SE 5.8 mph - N/A   Mostly Cloudy
8:35 PM 73.4 °F - 68.0 °F 83% 29.97 in 7.0 mi SSE 8.1 mph - N/A   Scattered Clouds
8:55 PM 73.0 °F - 68.0 °F 84% 29.97 in 4.0 mi SSE 6.9 mph - N/A   Haze
9:15 PM 72.3 °F - 68.0 °F 86% 29.97 in 3.0 mi SSE 8.1 mph - N/A   Clear
9:35 PM 71.6 °F - 68.0 °F 88% 29.97 in 2.5 mi SSE 8.1 mph - N/A   Clear
9:55 PM 70.9 °F - 68.0 °F 91% 29.97 in 2.5 mi SSE 8.1 mph - N/A   Scattered Clouds
10:15 PM 70.7 °F - 67.8 °F 91% 29.98 in 2.5 mi SSE 6.9 mph - N/A   Scattered Clouds
10:35 PM 70.3 °F - 67.8 °F 92% 29.98 in 3.0 mi South 8.1 mph - N/A   Clear
10:55 PM 70.0 °F - 67.6 °F 92% 29.98 in 2.5 mi SSE 6.9 mph - N/A   Clear
11:15 PM 69.6 °F - 67.3 °F 92% 29.97 in 2.5 mi SSE 5.8 mph - N/A   Clear
11:35 PM 68.9 °F - 67.1 °F 94% 29.97 in 2.0 mi South 4.6 mph - N/A   Clear
11:55 PM 68.9 °F - 67.1 °F 94% 29.97 in 2.0 mi South 4.6 mph - N/A   Mostly Cloudy